Location: Fort Wayne
(41.1310°N, 85.1290°W)
Time: 12:04:18
(UTC-05:00)

BREEZE-M DEB (TANK) - Visible Passes

Search period start: 11 February 2016 00:00
Search period end: 21 February 2016 00:00
Orbit: 265 x 13441 km, 49.6° (Epoch: 10 February)

Date Brightness Start Highest point End Pass type
(mag) Time Alt. Az. Time Alt. Az. Time Alt. Az.
11 Feb 7.6 02:51:48 10° WNW 03:41:41 38° SW 04:49:19 10° SSW visible
11 Feb 4.8 19:23:09 10° W 19:28:21 59° N 19:44:08 17° ENE visible
11 Feb 6.6 23:44:47 10° WNW 00:45:22 35° SE 01:36:18 10° SE visible
12 Feb 8.0 04:58:07 23° WSW 04:58:07 23° WSW 05:45:00 10° SW visible
12 Feb 5.6 20:40:21 10° WNW 20:48:03 60° N 20:59:06 36° ENE visible
13 Feb 7.0 01:02:35 10° WNW 02:01:40 41° S 03:02:54 10° SSE visible
13 Feb 6.1 21:57:27 10° WNW 22:08:27 74° NNE 23:18:15 10° ESE visible
14 Feb 7.5 02:21:23 10° WNW 03:17:46 36° SSW 04:17:17 10° S visible
14 Feb 4.6 18:53:08 10° W 18:57:53 59° N 19:16:15 11° ENE visible
14 Feb 6.6 23:14:30 10° WNW 00:21:03 28° SE 00:59:50 10° SE visible
15 Feb 8.0 04:33:42 23° SW 04:33:42 23° SW 05:15:20 10° SSW visible
15 Feb 5.4 20:09:56 10° WNW 20:16:58 58° N 20:30:55 28° ENE visible
16 Feb 6.9 00:31:49 10° WNW 01:36:50 35° SSE 02:28:03 10° SSE visible
16 Feb 6.0 21:26:38 10° WNW 21:36:40 71° NNE 21:45:28 52° E visible
17 Feb 7.4 01:49:59 10° WNW 02:52:25 33° SSW 03:43:57 10° S visible
17 Feb 4.4 18:22:07 10° W 18:26:26 58° NNW 18:43:01 10° ENE visible
17 Feb 6.5 22:43:15 10° WNW 22:57:06 90° SSW 00:21:41 10° SE visible
18 Feb 7.9 03:10:40 10° WNW 04:07:49 22° SW 04:44:28 10° SSW visible
18 Feb 5.3 19:38:32 10° WNW 19:44:54 56° N 20:01:52 21° E visible
19 Feb 6.9 00:00:04 10° WNW 01:10:29 30° SSE 01:51:40 10° SSE visible
19 Feb 5.8 20:54:49 10° WNW 21:03:56 68° NNE 21:16:08 42° E visible
20 Feb 7.4 01:17:37 10° WNW 02:25:30 29° S 03:09:17 10° S visible
20 Feb 6.3 22:10:59 10° WNW 22:23:34 88° NNE 23:41:50 10° SE visible
